Location: Unspecified
(0.0000°N, 0.0000°E)
Time: 03:49:03
(UTC+00:00)

Vanguard 2 - Pass Details

Date: 17 December 2018
Orbit: 553 x 2939 km, 32.9° (Epoch: 18 March)

Event Time Altitude Azimuth Distance (km) Brightness Sun altitude
Rises 13:35:29 0° 223° (SW) 4,854 12.1 56.4°
Reaches altitude 10° 13:39:42 10° 215° (SW) 3,432 11.6 55.7°
Maximum altitude 13:46:45 33° 154° (SSE) 1,575 9.7 54.4°
Drops below altitude 10° 13:51:27 10° 90° (E) 2,261 9.8 53.5°
Sets 13:53:40 0° 79° (E) 3,005 10.3 53.1°
